#timestamp,LO_Frequency,Hit 
1504569615.8,286046980.1,N
1504569635.7,286046980.5,N
1504569655.5,286046978.9,N
1504569675.3,286046983.4,N
1504569695.2,286046983.4,N
1504569715.9,286046980.1,P
1504569735.7,286046998.9,N
1504569755.6,286047001.1,N
1504569775.4,286046997.7,N
1504569795.2,286046997.5,N
1504569815.1,286047001.2,N
1504569816.0,286047001.2,N
1504569835.8,286047001.2,N
1504569855.6,286046999.1,N
1504569875.5,286046992.1,N
1504569895.3,286046990.3,N
1504569915.1,286046992.8,N
1504569935.8,286046990.6,N
1504569955.7,286046989.6,N
1504569975.5,286046990.9,N
1504569995.3,286046995.1,N
1504570015.2,286047000.1,N
1504570035.0,286047000.7,N
1504570035.9,286047000.7,N
1504570055.7,286047005.0,N
1504570075.6,286047006.1,N
1504570095.4,286047008.3,N
1504570115.2,286047012.2,N
1504570135.1,286047016.7,N
1504570136.0,286047016.7,N
1504570155.8,286047016.5,N
1504570175.6,286047017.9,N
1504570195.5,286047025.4,N
1504570215.3,286047026.8,N
1504570235.1,286047024.6,N
1504570255.9,286047027.6,N
1504570275.7,286047027.6,N
1504570295.5,286047029.8,N
1504570315.4,286047023.8,N
1504570335.2,286047022.1,N
1504570355.0,286047021.3,N
1504570355.9,286047021.3,N
1504570375.8,286047021.7,N
1504570395.6,286047019.6,N
1504570415.4,286047019.3,N
1504570435.2,286047023.9,N
1504570455.1,286047022.3,N
1504570456.0,286047022.3,N
1504570475.8,286047024.1,N
1504570495.6,286047023.6,N
1504570515.5,286047022.1,N
1504570535.3,286047024.8,N
1504570555.1,286047023.0,N
1504570575.9,286047025.2,P
1504570595.7,286047004.9,N
1504570615.5,286047006.6,N
1504570635.4,286047005.6,N
1504570655.2,286047005.6,N
1504570675.0,286047007.1,N
1504570675.9,286047007.1,N
1504570695.8,286047006.8,N
1504570715.6,286047007.0,N
1504570735.4,286047005.6,N
1504570755.3,286047006.3,N
1504570775.1,286047012.0,N
1504570795.8,286047010.4,N
1504570815.7,286047010.7,N
1504570835.5,286047009.8,N
1504570855.3,286047008.2,N
1504570875.2,286047008.1,N
1504570895.9,286047011.6,N
1504570915.7,286047008.0,N
1504570935.5,286047008.2,N
1504570955.4,286047009.1,N
1504570975.2,286047009.3,N
1504570995.0,286047013.8,N
1504570996.0,286047013.8,P
1504571015.8,286047006.4,N
1504571035.6,286047003.5,N
1504571055.4,286047003.4,N
1504571075.3,286046997.4,N
1504571095.1,286046993.2,N
1504571115.8,286046987.8,N
1504571135.7,286046985.6,N
1504571155.5,286046984.2,N
1504571175.3,286046978.9,N
1504571195.2,286046979.3,N
1504571215.9,286046974.5,N
1504571235.7,286046973.9,N
1504571255.6,286046975.2,N
1504571275.4,286046971.5,N
1504571295.2,286046973.2,N
1504571315.0,286046975.6,N
1504571316.0,286046975.6,N
1504571335.8,286046971.6,N
1504571355.6,286046974.0,N
1504571375.4,286046971.4,N
1504571395.3,286046967.7,N
1504571415.1,286046970.5,N
1504571435.8,286046974.7,N
1504571455.7,286046978.6,N
1504571475.5,286046976.4,N
1504571495.3,286046974.3,N
1504571515.2,286046972.6,N
1504571535.9,286046973.7,N
1504571555.7,286046973.7,N
1504571575.6,286046971.3,N
1504571595.4,286046970.2,N
1504571615.2,286046968.0,P
1504571635.1,286046990.5,N
1504571636.0,286046990.5,N
1504571655.8,286046993.6,N
1504571675.6,286046994.6,N
1504571695.5,286046991.4,N
1504571715.3,286046993.0,N
1504571735.1,286046988.7,N
1504571755.9,286046982.3,N
1504571775.7,286046983.4,N
1504571795.5,286046982.2,N
1504571815.3,286046985.4,N
1504571835.2,286046986.7,N
1504571855.0,286046986.6,N
1504571855.9,286046986.6,N
1504571875.7,286046983.8,N
1504571895.6,286046986.6,N
1504571915.4,286046985.1,N
1504571935.2,286046983.0,N
1504571955.1,286046982.1,P
1504571956.0,286046982.1,P
1504571975.8,286046997.4,N
1504571995.6,286046997.5,N
1504572015.5,286046998.8,N
1504572035.3,286047006.7,N
1504572055.1,286047013.8,N
1504572075.9,286047014.2,N
1504572095.7,286047019.6,N
1504572115.5,286047023.2,N
1504572135.4,286047023.0,N
1504572155.2,286047024.1,N
1504572175.0,286047028.0,N
1504572175.9,286047028.0,N
1504572195.8,286047027.8,N
1504572215.6,286047031.2,N
1504572235.4,286047031.1,N
1504572255.3,286047031.9,N
1504572275.1,286047032.3,N
1504572276.0,286047032.3,N
1504572295.8,286047035.8,N
1504572315.7,286047034.5,N
1504572335.5,286047036.9,N
1504572355.3,286047036.5,N
1504572375.1,286047035.4,N
1504572395.9,286047034.4,N
1504572415.7,286047038.0,N
1504572435.5,286047037.3,N
1504572455.4,286047037.3,N
1504572475.2,286047034.9,N
1504572495.0,286047034.9,N
1504572495.9,286047034.9,N
1504572515.8,286047035.0,N
1504572535.6,286047035.3,P
1504572555.4,286047006.2,N
1504572575.3,286047007.4,N
1504572595.1,286047005.0,N
1504572615.8,286047003.9,N
1504572635.7,286047004.0,N
1504572655.5,286047003.3,N
1504572675.3,286047004.2,N
1504572695.2,286047003.4,N
1504572715.9,286047006.0,N
1504572735.7,286047006.3,N
1504572755.6,286047005.0,N
1504572775.4,286047006.8,N
1504572795.2,286047005.3,N
1504572815.0,286047005.6,N
1504572815.9,286047005.6,N
1504572835.8,286047005.4,N
1504572855.6,286047005.4,N
1504572875.4,286047005.0,N
1504572895.3,286047008.9,N
1504572915.1,286047010.2,N
1504572935.8,286047010.7,N
1504572955.7,286047012.3,N
1504572975.5,286047011.6,N
1504572995.3,286047010.9,N
1504573015.2,286047005.8,N
1504573035.9,286047000.4,N
1504573055.7,286046995.2,N
1504573075.5,286046995.2,N
1504573095.4,286046992.8,N
1504573115.2,286046989.7,N
1504573135.0,286046989.5,N
1504573135.9,286046989.5,N
1504573155.8,286046988.1,N
1504573175.6,286046985.7,N
1504573195.4,286046987.2,N
